DW9244 N Kingstown RI US current weather conditions

sailwx.info

Wind from 114

Air temperature 2.2° C
Dewpoint 1.2° C

Last reported at 2019-Dec-13 23:00 UTC.
Time now 2019-Dec-13 23:49 UTC

Location: N 41°34' W 071°28'.
View on Google Maps.

See reports from other nearby stations

  
Tides and Currents Weather Stations Pressure Air Temp Water Temp Dewpoint Dewpoint Depression Visibility Wind Speed Wind Dir Waves Ship Positions
date/time (UTC)wind fromknots sea level pressurealtimeterstation pressurevisibilityair tempwater tempwave heightnotes
2019-Dec-13 23:00 114 2.2
2019-Dec-13 22:45 114 1.7
2019-Dec-13 22:31 114 1.7
2019-Dec-13 22:15 114 1.7
2019-Dec-13 22:00 114 1.7
2019-Dec-13 21:45 114 1.7
2019-Dec-13 21:30 114 1.7
2019-Dec-13 21:15 114 2.2
2019-Dec-13 21:00 114 2.2
2019-Dec-13 20:45 114 2.2
2019-Dec-13 20:30 114 2.2
2019-Dec-13 20:18 114 2.2
2019-Dec-13 20:02 114 2.2
2019-Dec-13 19:48 114 2.2
2019-Dec-13 19:33 114 2.2
2019-Dec-13 19:16 114 2.2
2019-Dec-13 19:02 114 2.2
2019-Dec-13 18:49 114 2.2
2019-Dec-13 18:31 146 2.8
2019-Dec-13 18:18 145 2.8
2019-Dec-13 18:01 145 2.8
2019-Dec-13 17:48 145 3.3
2019-Dec-13 17:31 145 3.9
2019-Dec-13 17:17 145 5.0
2019-Dec-13 17:01 094 6.1
2019-Dec-13 16:31 128 5.6
2019-Dec-13 16:15 101 5.0
2019-Dec-13 16:01 132 5.0
2019-Dec-13 15:46 202 3.3
2019-Dec-13 15:31 153 2.2
2019-Dec-13 15:15 174 1.7
2019-Dec-13 15:00 080 0.6
2019-Dec-13 14:47 080 -0.0
2019-Dec-13 14:32 080 -1.1
2019-Dec-13 14:16 080 -1.7
2019-Dec-13 14:01 080 -2.2
2019-Dec-13 13:47 080 -2.8
2019-Dec-13 13:32 080 -3.3
2019-Dec-13 13:16 080 -3.9
2019-Dec-13 13:02 080 -4.4
2019-Dec-13 12:45 080 -4.4
2019-Dec-13 12:32 080 -4.4
2019-Dec-13 12:16 080 -4.4
2019-Dec-13 12:01 080 -4.4
2019-Dec-13 11:46 080 -4.4
2019-Dec-13 11:31 080 -4.4
2019-Dec-13 11:15 080 -4.4
2019-Dec-13 11:00 080 -5.0
2019-Dec-13 10:45 080 -5.0
2019-Dec-13 10:30 080 -5.0
2019-Dec-13 10:15 080 -5.0
2019-Dec-13 10:00 080 -5.0
2019-Dec-13 09:45 080 -5.0
2019-Dec-13 09:30 080 -5.0
2019-Dec-13 09:17 080 -5.6
2019-Dec-13 09:02 080 -5.6
2019-Dec-13 08:48 080 -6.1
2019-Dec-13 08:31 080 -6.1
2019-Dec-13 08:17 080 -6.1
2019-Dec-13 08:02 080 -6.1
2019-Dec-13 07:47 080 -6.1
2019-Dec-13 07:32 080 -6.1
2019-Dec-13 07:01 080 -6.1
2019-Dec-13 06:46 080 -6.7
2019-Dec-13 06:32 080 -6.7
2019-Dec-13 06:16 080 -6.7
2019-Dec-13 06:01 080 -6.7
2019-Dec-13 05:45 080 -6.7
2019-Dec-13 05:31 080 -6.7
2019-Dec-13 05:02 080 -6.7
2019-Dec-13 04:47 080 -6.7
2019-Dec-13 04:32 080 -6.7
2019-Dec-13 04:16 080 -6.7
2019-Dec-13 04:00 080 -6.7
2019-Dec-13 03:46 080 -6.7
2019-Dec-13 03:31 080 -6.1
2019-Dec-13 03:16 080 -6.1
2019-Dec-13 03:01 080 -6.1
2019-Dec-13 02:46 080 -6.1
2019-Dec-13 02:31 080 -5.6
2019-Dec-13 02:15 080 -5.6
2019-Dec-13 02:01 080 -5.6
2019-Dec-13 01:30 080 -5.0
2019-Dec-13 01:17 080 -5.6
2019-Dec-13 01:01 080 -5.0
2019-Dec-13 00:46 080 -5.0
2019-Dec-13 00:30 080 -5.0
2019-Dec-13 00:15 080 -4.4
2019-Dec-13 00:01 080 -4.4
2019-Dec-12 23:45 080 -4.4
2019-Dec-12 23:30 080 -4.4
2019-Dec-12 23:15 080 -3.9
2019-Dec-12 23:00 080 -3.9
2019-Dec-12 22:45 080 -3.9
2019-Dec-12 22:30 080 -3.3
2019-Dec-12 22:15 080 -3.3
2019-Dec-12 22:00 080 -2.8
2019-Dec-12 21:45 080 -2.8
2019-Dec-12 21:30 080 -2.2
2019-Dec-12 21:15 080 -2.2
2019-Dec-12 21:00 080 -1.7
2019-Dec-12 20:45 080 -1.1
2019-Dec-12 20:30 080 -0.6
2019-Dec-12 20:15 080 -0.6
2019-Dec-12 20:00 088 -0.6
2019-Dec-12 19:45 346 -0.6
2019-Dec-12 19:30 344 -0.0
2019-Dec-12 19:15 338 -0.0
2019-Dec-12 19:00 329 -0.0
2019-Dec-12 18:45 096 -0.0
2019-Dec-12 18:30 043 0 gusting 6 -0.0
2019-Dec-12 18:18 317 -0.0
2019-Dec-12 18:02 005 -0.0
2019-Dec-12 17:47 298 0 gusting 4 -0.0
2019-Dec-12 17:33 050 0 gusting 3 -0.6
2019-Dec-12 17:17 327 0 gusting 4 -0.6
2019-Dec-12 17:02 056 0 gusting 5 -0.6
2019-Dec-12 16:48 005 0 gusting 4 -0.6
2019-Dec-12 16:31 323 0 gusting 4 -0.6
2019-Dec-12 16:17 005 0 gusting 5 -1.1
2019-Dec-12 16:01 295 1 gusting 6 -1.1
2019-Dec-12 15:46 043 0 gusting 3 -1.1
2019-Dec-12 15:31 301 1 gusting 4 -1.7
2019-Dec-12 15:16 283 -1.7
2019-Dec-12 15:02 302 -2.2
2019-Dec-12 14:47 322 -2.2
2019-Dec-12 14:31 300 -2.2
2019-Dec-12 14:16 317 -2.8
2019-Dec-12 14:01 338 -3.3
2019-Dec-12 13:46 342 -3.9
2019-Dec-12 13:30 302 1 gusting 5 -4.4
2019-Dec-12 13:15 309 -5.0
2019-Dec-12 13:00 236 0 gusting 2 -5.6
2019-Dec-12 12:45 300 -6.1
2019-Dec-12 12:30 288 0 gusting 2 -6.1
2019-Dec-12 12:15 338 0 gusting 3 -5.6
2019-Dec-12 12:00 005 -6.1
2019-Dec-12 11:45 316 -6.1
2019-Dec-12 11:30 292 0 gusting 5 -5.6
2019-Dec-12 11:16 300 -5.6
2019-Dec-12 11:01 340 0 gusting 4 -5.6
2019-Dec-12 10:48 323 1 gusting 8 -5.6
2019-Dec-12 10:32 302 0 gusting 6 -5.6
2019-Dec-12 10:17 313 1 gusting 8 -5.6
2019-Dec-12 10:01 293 -5.6
2019-Dec-12 09:46 235 0 gusting 9 -5.0
2019-Dec-12 09:31 318 -5.0
2019-Dec-12 09:16 322 -5.0
2019-Dec-12 09:03 296 -5.0
2019-Dec-12 08:46 310 1 gusting 7 -4.4
2019-Dec-12 08:31 310 1 gusting 7 -4.4
2019-Dec-12 08:15 342 0 gusting 7 -4.4
2019-Dec-12 08:00 346 1 gusting 4 -4.4
2019-Dec-12 07:45 346 1 gusting 5 -4.4
2019-Dec-12 07:30 265 1 gusting 6 -4.4
2019-Dec-12 07:00 283 0 gusting 7 -3.9
2019-Dec-12 06:45 360 2 gusting 9 -3.9
2019-Dec-12 06:30 317 1 gusting 6 -3.9
2019-Dec-12 06:15 304 1 gusting 6 -3.9
2019-Dec-12 06:02 277 -4.4
2019-Dec-12 05:47 277 -4.4
2019-Dec-12 05:31 277 -4.4
2019-Dec-12 05:18 304 -4.4
2019-Dec-12 05:02 309 -4.4
2019-Dec-12 04:47 309 -3.9
2019-Dec-12 04:32 309 -3.3
2019-Dec-12 04:17 309 -2.8
2019-Dec-12 04:01 309 -2.8
2019-Dec-12 03:45 279 0 gusting 4 -2.8
2019-Dec-12 03:33 253 -3.3
2019-Dec-12 03:16 253 0 gusting 2 -3.3
2019-Dec-12 03:01 253 -4.4
2019-Dec-12 02:45 253 -4.4
2019-Dec-12 02:30 253 -4.4
2019-Dec-12 02:16 253 -4.4
2019-Dec-12 02:00 253 -4.4
2019-Dec-12 01:45 253 -4.4
2019-Dec-12 01:30 253 -3.9
2019-Dec-12 01:16 253 -3.9
2019-Dec-12 01:00 253 -3.9
2019-Dec-12 00:45 253 -3.9
2019-Dec-12 00:30 253 -3.9
2019-Dec-12 00:15 253 -3.9
2019-Dec-12 00:00 253 -3.9
2019-Dec-11 23:45 253 -3.9
2019-Dec-11 23:31 253 -4.4
2019-Dec-11 23:15 253 -3.9
2019-Dec-11 23:00 253 -3.9